�N����,����,����,����,����,�C��,���x,�~����,�S�V����,�ő�u�ԕ���,,,
,,,,,,,,,����,����,����,�N��
yyyy/mm/dd,hh:mm:ss,(16),16����,m/s,��,%,mm,KW/�u,(16),16����,m/s,Time
2015/5/1,1:00:00,9,��쐼,3.4,13.9,53,0,0,7,��쓌,7.3,28
2015/5/1,2:00:00,10,�쐼,1.6,13.2,54.2,0,0,10,�쐼,5,0
2015/5/1,3:00:00,10,�쐼,5.7,19.7,35.7,0,0,10,�쐼,12.2,48
2015/5/1,4:00:00,9,��쐼,4.3,18.6,40.9,0,0,10,�쐼,9.2,2
2015/5/1,5:00:00,9,��쐼,3.2,20,35.7,0,0.01,10,�쐼,7.7,0
2015/5/1,6:00:00,5,���쓌,0.6,17.5,47.7,0,0.06,8,��,7.6,6
2015/5/1,7:00:00,3,���k��,1.8,18.4,45.8,0,0.22,3,���k��,5,3
2015/5/1,8:00:00,3,���k��,2.5,17.5,49.8,0,0.45,4,��,6.2,2
2015/5/1,9:00:00,5,���쓌,1.2,20.9,36.3,0,0.54,2,�k��,3.4,10
2015/5/1,10:00:00,9,��쐼,4.8,23.4,33,0,0.72,10,�쐼,6.9,59
2015/5/1,11:00:00,11,���쐼,6.8,24.9,24.3,0,0.71,11,���쐼,10.7,59
2015/5/1,12:00:00,11,���쐼,6.2,25.7,26.2,0,0.78,12,��,12.3,14
2015/5/1,13:00:00,3,���k��,3.9,24.3,28.4,0,0.77,11,���쐼,10.2,4
2015/5/1,14:00:00,16,�k,3.7,26.3,21.7,0,0.72,1,�k�k��,8.3,37
2015/5/1,15:00:00,1,�k�k��,5.2,25.1,18.2,0,0.58,2,�k��,9.6,58
2015/5/1,16:00:00,15,�k�k��,4.3,23.2,19.1,0,0.35,14,�k��,9.6,46
2015/5/1,17:00:00,16,�k,4.5,21.9,20.7,0,0.19,14,�k��,10.2,18
2015/5/1,18:00:00,14,�k��,3.3,20.5,23.4,0,0.08,1,�k�k��,10,26
2015/5/1,19:00:00,2,�k��,3.5,11.3,64.5,0,0.01,5,���쓌,11.9,6
2015/5/1,20:00:00,15,�k�k��,0.6,8.9,74.8,0,0,2,�k��,4.8,4
2015/5/1,21:00:00,11,���쐼,1.1,7.7,79.1,0,0,3,���k��,2.4,1
2015/5/1,22:00:00,11,���쐼,1.4,5.6,84.8,0,0,11,���쐼,2.1,59
2015/5/1,23:00:00,12,��,0.6,5.5,85.3,0,0,13,���k��,4.4,58
2015/5/1,0:00:00,12,��,1.1,3.8,89.8,0,0,12,��,2.1,43
2015/5/2,1:00:00,12,��,1.9,4.1,90.7,0,0,12,��,3,32
2015/5/2,2:00:00,12,��,2.5,3.6,88,0,0,12,��,3.4,40
2015/5/2,3:00:00,1,�k�k��,0.4,1.8,93,0,0,11,���쐼,4.2,40
2015/5/2,4:00:00,16,�k,0.7,0.5,97.3,0,0,14,�k��,2.3,14
2015/5/2,5:00:00,12,��,0.9,0.9,97.8,0,0.02,1,�k�k��,2.2,38
2015/5/2,6:00:00,13,���k��,0.9,5.6,87.3,0,0.16,12,��,2,41
2015/5/2,7:00:00,4,��,0.9,9.9,63,0,0.36,12,��,2.5,42
2015/5/2,8:00:00,5,���쓌,2.5,9.7,59.1,0,0.56,5,���쓌,4,58
2015/5/2,9:00:00,6,�쓌,3,10.2,55.3,0,0.74,7,��쓌,5.3,41
2015/5/2,10:00:00,7,��쓌,3.6,9.9,57.6,0,0.87,8,��,6.7,55
2015/5/2,11:00:00,7,��쓌,3.4,10.4,56.5,0,0.97,5,���쓌,6.9,18
2015/5/2,12:00:00,6,�쓌,2.7,10.2,66.3,0,0.98,6,�쓌,6.3,40
2015/5/2,13:00:00,5,���쓌,4,9.7,62.3,0,0.93,7,��쓌,7.1,12
2015/5/2,14:00:00,5,���쓌,4.7,10.1,68.2,0,0.82,4,��,7.5,52
2015/5/2,15:00:00,4,��,3.5,10.4,66.3,0,0.67,5,���쓌,7.6,5
2015/5/2,16:00:00,6,�쓌,2.5,9.8,66.8,0,0.49,4,��,5.9,5
2015/5/2,17:00:00,6,�쓌,2.5,10.7,66.6,0,0.29,7,��쓌,5.8,8
2015/5/2,18:00:00,8,��,3.2,10,63.3,0,0.11,8,��,6.4,59
2015/5/2,19:00:00,9,��쐼,2.5,9.1,66.4,0,0.01,8,��,7.8,11
2015/5/2,20:00:00,12,��,1.4,5.6,81.9,0,0,9,��쐼,6.3,18
2015/5/2,21:00:00,12,��,1.6,5.6,84.7,0,0,13,���k��,3.4,23
2015/5/2,22:00:00,14,�k��,2.4,7.2,80.4,0,0,15,�k�k��,3.7,59
2015/5/2,23:00:00,14,�k��,1.6,5.8,86.2,0,0,2,�k��,4.3,31
2015/5/2,0:00:00,12,��,1,3.5,94.5,0,0,2,�k��,2.5,10
2015/5/3,1:00:00,13,���k��,1.3,2.7,96.9,0,0,14,�k��,2,59
2015/5/3,2:00:00,12,��,1.1,2,97.4,0,0,13,���k��,2,0
2015/5/3,3:00:00,11,���쐼,1,2.9,99.4,0,0,3,���k��,9,48
2015/5/3,4:00:00,12,��,1.6,4,97.8,0,0,12,��,2.1,48
2015/5/3,5:00:00,12,��,0.4,5.1,99,0,0.01,12,��,1.9,0
2015/5/3,6:00:00,2,�k��,2.2,7,99.5,0,0.08,5,���쓌,4.3,20
2015/5/3,7:00:00,12,��,1,7.6,95.5,0,0.12,1,�k�k��,4.6,2
2015/5/3,8:00:00,11,���쐼,0.4,8.8,92.3,0,0.21,7,��쓌,1.8,20
2015/5/3,9:00:00,5,���쓌,2,9.4,90.5,0,0.28,6,�쓌,3.3,7
2015/5/3,10:00:00,5,���쓌,3.4,8.6,91.4,0,0.36,5,���쓌,4.9,55
2015/5/3,11:00:00,4,��,2.9,8.5,91.7,0,0.35,4,��,5.3,34
2015/5/3,12:00:00,3,���k��,2.7,8.7,94.7,0,0.27,4,��,4.5,3
2015/5/3,13:00:00,4,��,2.8,8.8,93.7,0,0.26,4,��,3.8,54
2015/5/3,14:00:00,4,��,2,8.8,93.9,0,0.25,4,��,4,5
2015/5/3,15:00:00,4,��,1.6,9.2,91.7,0,0.22,4,��,3.1,33
2015/5/3,16:00:00,3,���k��,1.6,8.7,97,0,0.13,4,��,2.5,39
2015/5/3,17:00:00,3,���k��,2.5,8.3,98.5,0,0.06,3,���k��,3.4,58
2015/5/3,18:00:00,3,���k��,2,7.5,99.4,0,0.02,2,�k��,3.1,56
2015/5/3,19:00:00,3,���k��,1.3,7.5,99.8,0,0.01,3,���k��,3,6
2015/5/3,20:00:00,1,�k�k��,0.8,7.7,99.9,0,0,1,�k�k��,3,30
2015/5/3,21:00:00,2,�k��,0.8,7.5,100,0,0,2,�k��,1.1,55
2015/5/3,22:00:00,5,���쓌,1.4,6.7,99.9,0,0,16,�k,2.8,40
2015/5/3,23:00:00,2,�k��,1.5,7.1,100,0,0,2,�k��,2.2,56
2015/5/3,0:00:00,2,�k��,0.8,6.7,100,0,0,1,�k�k��,2.4,39
2015/5/4,1:00:00,15,�k�k��,0.8,6.7,100,0,0,2,�k��,2.1,25
2015/5/4,2:00:00,1,�k�k��,1.5,6.7,100,0,0,2,�k��,2.6,59
2015/5/4,3:00:00,14,�k��,0.6,6.7,100,0,0,1,�k�k��,2.9,2
2015/5/4,4:00:00,1,�k�k��,0.8,6.8,100,0,0,15,�k�k��,1.5,22
2015/5/4,5:00:00,15,�k�k��,0.5,6.7,100,0,0.01,1,�k�k��,1.5,52
2015/5/4,6:00:00,7,��쓌,0.4,7.3,100,0,0.04,13,���k��,2.2,45
2015/5/4,7:00:00,1,�k�k��,1.3,7.8,100,0,0.08,1,�k�k��,2.5,33
2015/5/4,8:00:00,1,�k�k��,1.7,8.7,100,0,0.15,2,�k��,3,24
2015/5/4,9:00:00,2,�k��,1.6,9.3,100,0,0.24,1,�k�k��,3.1,7
2015/5/4,10:00:00,3,���k��,2,11,98.2,0,0.39,3,���k��,3.6,51
2015/5/4,11:00:00,4,��,3.2,10.9,91.6,0,0.49,4,��,4.8,0
2015/5/4,12:00:00,4,��,3.9,9.2,92.6,0,0.4,4,��,5.2,21
2015/5/4,13:00:00,4,��,3.3,9.5,98.2,0,0.28,4,��,5.6,30
2015/5/4,14:00:00,4,��,2.6,9,97.2,0,0.25,4,��,5.1,16
2015/5/4,15:00:00,4,��,2.4,8,98.4,0,0.16,3,���k��,4,13
2015/5/4,16:00:00,3,���k��,2.9,8.7,99.8,0,0.12,3,���k��,4.2,54
2015/5/4,17:00:00,3,���k��,3.9,8,100,0,0.04,3,���k��,5.5,57
2015/5/4,18:00:00,4,��,3.6,8.6,100,0,0.01,3,���k��,5.9,16
2015/5/4,19:00:00,4,��,3.6,8.7,100,0,0,4,��,7.1,22
2015/5/4,20:00:00,5,���쓌,3.4,9.1,100,0.5,0,5,���쓌,6.1,44
2015/5/4,21:00:00,6,�쓌,1.9,8.7,100,0,0,6,�쓌,7.2,20
2015/5/4,22:00:00,6,�쓌,1.7,9.1,100,0,0,6,�쓌,4.3,59
2015/5/4,23:00:00,8,��,6.1,10.9,100,0,0,8,��,11.6,51
2015/5/4,0:00:00,7,��쓌,5.7,10.1,100,0.5,0,8,��,11.7,7
2015/5/5,1:00:00,8,��,5,9.8,100,2.5,0,7,��쓌,10.6,5
2015/5/5,2:00:00,9,��쐼,3.8,9.5,100,2,0,8,��,8.9,9
2015/5/5,3:00:00,13,���k��,2,10.4,100,0,0,8,��,6.5,3
2015/5/5,4:00:00,10,�쐼,6.3,14.6,100,0,0,11,���쐼,11,53
2015/5/5,5:00:00,12,��,3.4,13.7,70.4,0,0.01,12,��,11.7,19
2015/5/5,6:00:00,15,�k�k��,3.3,13,74.1,0,0.04,11,���쐼,10.7,2
2015/5/5,7:00:00,15,�k�k��,1.3,13.1,69.2,0,0.17,15,�k�k��,5.5,11
2015/5/5,8:00:00,16,�k,0.7,14.4,49.1,0,0.41,1,�k�k��,6.6,0
2015/5/5,9:00:00,10,�쐼,2.1,16.1,36,0,0.68,10,�쐼,7.9,58
2015/5/5,10:00:00,14,�k��,2.7,15.9,44.2,0,0.52,13,���k��,12.6,58
2015/5/5,11:00:00,11,���쐼,9.6,17,32,0,0.62,10,�쐼,15.7,58
2015/5/5,12:00:00,12,��,8.2,17.5,29.1,0,0.96,12,��,19.4,11
2015/5/5,13:00:00,12,��,9.7,18.4,26.8,0,0.94,12,��,17.1,55
2015/5/5,14:00:00,11,���쐼,8.2,18.5,25.3,0,0.82,11,���쐼,16.2,17
2015/5/5,15:00:00,10,�쐼,5.3,18,31.6,0,0.71,12,��,14.6,23
2015/5/5,16:00:00,12,��,3.4,17.7,29.5,0,0.55,12,��,11.3,9
2015/5/5,17:00:00,11,���쐼,8.7,17.1,25.9,0,0.32,11,���쐼,14.3,50
2015/5/5,18:00:00,11,���쐼,6.3,15.9,31.8,0,0.12,12,��,13.5,18
2015/5/5,19:00:00,11,���쐼,2.8,15.6,27.5,0,0.01,11,���쐼,13,1
2015/5/5,20:00:00,11,���쐼,7,15.4,26,0,0,11,���쐼,13.1,40
2015/5/5,21:00:00,10,�쐼,4.1,14.7,27,0,0,10,�쐼,11,36
2015/5/5,22:00:00,9,��쐼,2.9,12.9,32.8,0,0,9,��쐼,7.4,6
2015/5/5,23:00:00,8,��,3,11.5,55.7,0,0,8,��,6.8,56
2015/5/5,0:00:00,7,��쓌,2.5,10,60.4,0,0,8,��,5.9,6
2015/5/6,1:00:00,9,��쐼,2.8,11.1,59.2,0,0,9,��쐼,6.3,44
2015/5/6,2:00:00,12,��,1.6,7,74.4,0,0,8,��,4.8,40
2015/5/6,3:00:00,9,��쐼,1.9,6.5,75,0,0,5,���쓌,3.8,24
2015/5/6,4:00:00,11,���쐼,1.7,3.2,89.7,0,0,9,��쐼,3.1,21
2015/5/6,5:00:00,10,�쐼,3,5.5,82.3,0,0.03,9,��쐼,4.7,51
2015/5/6,6:00:00,8,��,2.6,14.1,39.7,0,0.17,8,��,5.1,38
2015/5/6,7:00:00,8,��,4.1,14.9,38.4,0,0.4,6,�쓌,6.8,30
2015/5/6,8:00:00,10,�쐼,7.9,18.2,28.1,0,0.56,10,�쐼,12.3,52
2015/5/6,9:00:00,9,��쐼,5.7,19.4,20.5,0,0.8,10,�쐼,11.6,56
2015/5/6,10:00:00,8,��,5.5,19.4,24.7,0,0.95,8,��,12.7,19
2015/5/6,11:00:00,7,��쓌,5.1,17.4,29.4,0,1.04,7,��쓌,10.7,20
2015/5/6,12:00:00,10,�쐼,8.2,21.1,18.4,0,1.07,10,�쐼,11.9,51
2015/5/6,13:00:00,12,��,6.9,21.2,22.5,0,1.01,12,��,11.5,50
2015/5/6,14:00:00,11,���쐼,8.1,20.9,24.6,0,0.86,10,�쐼,15,32
2015/5/6,15:00:00,10,�쐼,8.1,19.8,26.7,0,0.63,10,�쐼,14.5,2
2015/5/6,16:00:00,8,��,4.6,19.5,33.6,0,0.49,10,�쐼,12.2,58
2015/5/6,17:00:00,7,��쓌,3.7,13.8,46.9,0,0.29,11,���쐼,12.3,6
2015/5/6,18:00:00,7,��쓌,2,12.6,51.9,0,0.12,8,��,5.9,5
2015/5/6,19:00:00,9,��쐼,3.2,11.7,57.1,0,0.01,8,��,6,38
2015/5/6,20:00:00,10,�쐼,2.5,11.9,55.2,0,0,10,�쐼,6.9,19
2015/5/6,21:00:00,4,��,1.5,9.7,64,0,0,2,�k��,4.8,22
2015/5/6,22:00:00,12,��,1.7,7.4,81.1,0,0,12,��,2.9,59
2015/5/6,23:00:00,12,��,2.2,7.8,75.9,0,0,12,��,4.1,30
2015/5/6,0:00:00,12,��,1.6,7.5,79.6,0,0,12,��,2.8,14
2015/5/7,1:00:00,14,�k��,1.2,7,77,0,0,1,�k�k��,3.1,11
2015/5/7,2:00:00,13,���k��,0.8,5.5,83.4,0,0,12,��,2.6,37
2015/5/7,3:00:00,12,��,1.9,4.6,89.6,0,0,11,���쐼,7.4,9
2015/5/7,4:00:00,10,�쐼,0.3,3.5,86.7,0,0,12,��,3.5,26
2015/5/7,5:00:00,13,���k��,0.5,3.3,94.2,0,0.02,10,�쐼,2.9,17
2015/5/7,6:00:00,12,��,0.9,6.2,82.9,0,0.12,11,���쐼,2.9,12
2015/5/7,7:00:00,14,�k��,0.8,12.1,61.8,0,0.32,11,���쐼,3.4,25
2015/5/7,8:00:00,4,��,1.7,15.7,36.6,0,0.56,3,���k��,3.1,34
2015/5/7,9:00:00,5,���쓌,3.3,14.7,41.6,0,0.72,5,���쓌,5.2,38
2015/5/7,10:00:00,5,���쓌,3.9,16,33.5,0,0.86,6,�쓌,5.4,53
2015/5/7,11:00:00,6,�쓌,4.5,17.7,45.5,0,0.94,7,��쓌,6.2,0
2015/5/7,12:00:00,7,��쓌,4.1,17.1,43,0,1.01,6,�쓌,7.9,31
2015/5/7,13:00:00,7,��쓌,4.6,19,33.1,0,1,7,��쓌,9,33
2015/5/7,14:00:00,11,���쐼,5.6,20.8,14.8,0,0.91,10,�쐼,10.6,33
2015/5/7,15:00:00,11,���쐼,6.7,20.8,18.8,0,0.75,10,�쐼,12.1,41
2015/5/7,16:00:00,11,���쐼,5.8,20.1,20.8,0,0.56,11,���쐼,11.3,36
2015/5/7,17:00:00,11,���쐼,6.7,18.5,27,0,0.34,12,��,11.7,31
2015/5/7,18:00:00,12,��,4.3,16.7,27.7,0,0.14,11,���쐼,10.3,2
2015/5/7,19:00:00,11,���쐼,3.5,14.7,30.5,0,0.01,12,��,9.5,23
2015/5/7,20:00:00,15,�k�k��,2.5,11.4,41.5,0,0,2,�k��,5.1,57
2015/5/7,21:00:00,14,�k��,1.7,9.5,49.6,0,0,12,��,3.6,42
2015/5/7,22:00:00,12,��,1.8,7,63.6,0,0,15,�k�k��,3.3,31
2015/5/7,23:00:00,8,��,1.1,4.8,61.6,0,0,13,���k��,3.7,11
2015/5/7,0:00:00,9,��쐼,0.6,5,65.1,0,0,8,��,2.5,11
2015/5/8,1:00:00,12,��,1.9,3.5,72.2,0,0,11,���쐼,2.8,59
2015/5/8,2:00:00,12,��,2.3,2.4,75.1,0,0,12,��,3.1,59
2015/5/8,3:00:00,10,�쐼,1.8,0.5,85.5,0,0,12,��,3,0
2015/5/8,4:00:00,12,��,2.6,1.9,79.4,0,0,12,��,3.6,53
2015/5/8,5:00:00,12,��,2.1,1.9,83.3,0,0.04,12,��,3.3,56
2015/5/8,6:00:00,12,��,2.3,3.8,81.3,0,0.13,12,��,2.8,53
2015/5/8,7:00:00,13,���k��,0.9,8.8,63.1,0,0.26,12,��,2.6,6
2015/5/8,8:00:00,9,��쐼,2.1,11.2,50.6,0,0.37,11,���쐼,4.4,43
2015/5/8,9:00:00,7,��쓌,2.5,11.4,48.8,0,0.44,6,�쓌,5.3,56
2015/5/8,10:00:00,5,���쓌,1.6,13.5,51.6,0,0.76,5,���쓌,5,6
2015/5/8,11:00:00,3,���k��,1.7,13.2,54.5,0,0.54,4,��,3.5,52
2015/5/8,12:00:00,5,���쓌,1.4,15,43.7,0,0.56,7,��쓌,3.9,28
2015/5/8,13:00:00,6,�쓌,2.9,14.9,36.8,0,0.8,5,���쓌,5.9,52
2015/5/8,14:00:00,7,��쓌,5.1,16,37.5,0,0.86,7,��쓌,8.6,53
2015/5/8,15:00:00,7,��쓌,3.9,11.7,47.7,0,0.72,8,��,8.6,6
2015/5/8,16:00:00,6,�쓌,3.4,13,47.4,0,0.57,7,��쓌,8.5,38
2015/5/8,17:00:00,9,��쐼,4.9,12.1,44.5,0,0.36,9,��쐼,10.8,24
2015/5/8,18:00:00,8,��,5.9,11.7,36.3,0,0.09,9,��쐼,11.6,32
2015/5/8,19:00:00,8,��,5,10.2,42.8,0,0.01,9,��쐼,11.1,22
2015/5/8,20:00:00,7,��쓌,4,8.8,59,0,0,8,��,9,8
2015/5/8,21:00:00,12,��,2,8.1,72.8,0,0,8,��,6.7,2
2015/5/8,22:00:00,7,��쓌,0.5,3.6,84.5,0,0,13,���k��,3.3,4
2015/5/8,23:00:00,11,���쐼,2.8,8.2,84,0,0,10,�쐼,6.1,59
2015/5/8,0:00:00,1,�k�k��,0.7,6.7,80.2,0,0,12,��,8,10
2015/5/9,1:00:00,7,��쓌,0.5,2.9,90.3,0,0,9,��쐼,1.9,59
2015/5/9,2:00:00,14,�k��,3,5.8,87.4,0,0,13,���k��,5.2,38
2015/5/9,3:00:00,10,�쐼,1,0.5,95.8,0,0,3,���k��,4.2,5
2015/5/9,4:00:00,12,��,1.9,-0.1,99.2,0,0,13,���k��,2.5,54
2015/5/9,5:00:00,11,���쐼,1.3,0.7,99.3,0,0.04,12,��,2.7,9
2015/5/9,6:00:00,5,���쓌,0.5,7.3,87.5,0,0.2,4,��,2.7,59
2015/5/9,7:00:00,10,�쐼,0.5,11.4,59.6,0,0.4,9,��쐼,3.7,58
2015/5/9,8:00:00,10,�쐼,2.5,12,49.3,0,0.6,8,��,4.3,57
2015/5/9,9:00:00,7,��쓌,4.9,11.7,50.2,0,0.8,6,�쓌,8,43
2015/5/9,10:00:00,7,��쓌,4.1,13.1,45.5,0,0.94,5,���쓌,8.4,27
2015/5/9,11:00:00,7,��쓌,4.9,13,47.2,0,1.02,5,���쓌,9.3,2
2015/5/9,12:00:00,7,��쓌,4.5,13.3,51.9,0,1.04,7,��쓌,8.5,48
2015/5/9,13:00:00,7,��쓌,4.8,13.3,52.7,0,0.97,7,��쓌,8.1,43
2015/5/9,14:00:00,7,��쓌,4.5,14,43.7,0,0.88,8,��,8,0
2015/5/9,15:00:00,7,��쓌,3.3,13.8,42.6,0,0.73,7,��쓌,7.5,12
2015/5/9,16:00:00,7,��쓌,2.6,13.4,47.3,0,0.56,8,��,6.2,12
2015/5/9,17:00:00,8,��,1.2,12.9,49.8,0,0.26,8,��,4.1,7
2015/5/9,18:00:00,10,�쐼,1.6,12.1,55.8,0,0.06,9,��쐼,2.8,52
2015/5/9,19:00:00,3,���k��,4.1,7.7,84.2,0,0.01,3,���k��,5.8,59
2015/5/9,20:00:00,3,���k��,4.7,7.6,90.2,0,0,3,���k��,7.4,57
2015/5/9,21:00:00,3,���k��,4.3,7.3,93,0,0,3,���k��,7.4,11
2015/5/9,22:00:00,2,�k��,3.5,7.5,93.5,0,0,3,���k��,7,30
2015/5/9,23:00:00,2,�k��,3.6,7.6,92.7,0,0,2,�k��,6.2,51
2015/5/9,0:00:00,2,�k��,2.4,7.6,88.6,0,0,3,���k��,6.5,17
2015/5/10,1:00:00,1,�k�k��,2,7.4,91.7,0,0,1,�k�k��,5.1,15
2015/5/10,2:00:00,12,��,1,7.1,96.4,0.5,0,1,�k�k��,2.7,1
2015/5/10,3:00:00,14,�k��,0.6,7.1,97.1,1,0,13,���k��,1.6,3
2015/5/10,4:00:00,1,�k�k��,0.4,7,97.6,1,0,13,���k��,1.4,19
2015/5/10,5:00:00,13,�É�,0,7,97.4,0.5,0.01,1,�k�k��,1.5,49
2015/5/10,6:00:00,3,���k��,0.7,7.4,94.6,0,0.05,2,�k��,8,31
2015/5/10,7:00:00,4,��,2.1,7,94.8,0,0.08,4,��,3.6,47
2015/5/10,8:00:00,5,���쓌,1.9,7.7,91.8,0,0.22,4,��,3.6,9
2015/5/10,9:00:00,5,���쓌,1.7,8.8,90.1,0,0.37,6,�쓌,3.3,26
2015/5/10,10:00:00,6,�쓌,2.1,8.4,92.1,0,0.39,6,�쓌,3.6,49
2015/5/10,11:00:00,7,��쓌,2.2,7.7,94.9,0,0.25,6,�쓌,3.5,8
2015/5/10,12:00:00,9,��쐼,2.5,8.4,90.5,0,0.62,7,��쓌,4.9,24
2015/5/10,13:00:00,7,��쓌,2.4,8.8,95.5,1,0.48,5,���쓌,5.3,33
2015/5/10,14:00:00,6,�쓌,3.6,8.5,95.8,0,0.61,6,�쓌,5.5,55
2015/5/10,15:00:00,5,���쓌,2.5,8.5,89.3,0.5,0.61,6,�쓌,4.2,14
2015/5/10,16:00:00,7,��쓌,2.5,9.3,78.6,0,0.52,8,��,4.6,36
2015/5/10,17:00:00,8,��,1.7,9.4,79,0,0.32,8,��,3.7,9
2015/5/10,18:00:00,10,�쐼,1.5,8.3,83.7,0,0.09,9,��쐼,3.3,10
2015/5/10,19:00:00,11,���쐼,1.6,4.9,95.1,0,0.02,10,�쐼,2.4,51
2015/5/10,20:00:00,11,���쐼,1.9,3.7,97.7,0,0,13,���k��,2.8,46
2015/5/10,21:00:00,13,���k��,1.9,3.3,99.1,0,0,13,���k��,2.9,30
2015/5/10,22:00:00,12,��,3.1,3.6,98.4,0,0,11,���쐼,4.5,38
2015/5/10,23:00:00,12,��,1.3,2.4,98.8,0,0,12,��,4.2,9
2015/5/10,0:00:00,13,���k��,2.9,2,98.3,0,0,4,��,4.4,47
2015/5/11,1:00:00,13,���k��,2,1.5,95.5,0,0,13,���k��,4.9,21
2015/5/11,2:00:00,12,��,1.7,0.8,95.2,0,0,13,���k��,3.9,25
2015/5/11,3:00:00,13,���k��,2.9,0.7,95.5,0,0,13,���k��,3.8,43
2015/5/11,4:00:00,12,��,2.4,0.5,96.5,0,0,12,��,4,38
2015/5/11,5:00:00,12,��,1.3,1.4,93.5,0,0.05,12,��,4,18
2015/5/11,6:00:00,13,���k��,2.2,5.6,77.4,0,0.23,12,��,4.2,6
2015/5/11,7:00:00,12,��,1.4,10.3,68.2,0,0.43,12,��,2.6,19
2015/5/11,8:00:00,6,�쓌,1.4,13.4,56.5,0,0.61,6,�쓌,2.9,36
2015/5/11,9:00:00,6,�쓌,1.5,14.1,54.5,0,0.76,7,��쓌,2.6,27
2015/5/11,10:00:00,7,��쓌,1.3,17.6,43.6,0,0.82,8,��,3.2,48
2015/5/11,11:00:00,7,��쓌,2.5,21.1,26,0,0.96,7,��쓌,4.4,59
2015/5/11,12:00:00,7,��쓌,4,19.4,34.2,0,1.1,7,��쓌,6.1,58
2015/5/11,13:00:00,6,�쓌,2.6,20.7,31.7,0,1.02,6,�쓌,6,42
2015/5/11,14:00:00,4,��,2.1,23.8,24.7,0,0.92,1,�k�k��,5.8,59
2015/5/11,15:00:00,10,�쐼,2.3,22,25.7,0,0.58,14,�k��,7,23
2015/5/11,16:00:00,12,��,6.3,21.3,30.3,0,0.4,12,��,11.1,20
2015/5/11,17:00:00,12,��,6.8,20.3,32.9,0,0.31,12,��,13.1,35
2015/5/11,18:00:00,11,���쐼,3.9,19.2,33.7,0,0.1,11,���쐼,9.6,5
2015/5/11,19:00:00,10,�쐼,4,17.9,35.9,0,0.02,10,�쐼,7.9,33
2015/5/11,20:00:00,14,�k��,2.1,16.8,34.9,0,0,11,���쐼,7.9,16
2015/5/11,21:00:00,10,�쐼,2.1,13.8,50.5,0,0,14,�k��,4.7,9
2015/5/11,22:00:00,16,�k,1.4,13.9,42,0,0,11,���쐼,5.9,8
2015/5/11,23:00:00,11,���쐼,0.8,11.8,56.6,0,0,14,�k��,4,32
2015/5/11,0:00:00,12,��,1.9,10.4,67.4,0,0,12,��,2.9,45
2015/5/12,1:00:00,11,���쐼,0.4,9.8,67.6,0,0,12,��,1.8,26
2015/5/12,2:00:00,12,��,0.9,7.6,82.8,0,0,11,���쐼,1.9,54
2015/5/12,3:00:00,12,��,1.1,7.2,80.1,0,0,12,��,2.1,30
2015/5/12,4:00:00,12,��,1.7,6.2,83.1,0,0,12,��,2.4,55
2015/5/12,5:00:00,12,��,2.3,6.7,82,0,0.04,12,��,2.9,49
2015/5/12,6:00:00,14,�k��,0.8,10.8,67.1,0,0.21,14,�k��,2.7,15
2015/5/12,7:00:00,12,�É�,0.2,14.1,54,0,0.38,12,��,2.5,5
2015/5/12,8:00:00,8,��,0.7,16.5,34.8,0,0.51,7,��쓌,2.6,44
2015/5/12,9:00:00,5,���쓌,3.4,16,32.6,0,0.71,6,�쓌,4.9,57
2015/5/12,10:00:00,4,��,4.8,15.3,33.5,0,0.76,5,���쓌,6.4,46
2015/5/12,11:00:00,4,��,3.3,15.3,38.1,0,0.62,5,���쓌,6.4,12
2015/5/12,12:00:00,6,�쓌,2.6,13.5,48.5,0,0.52,6,�쓌,5.7,18
2015/5/12,13:00:00,2,�k��,2.7,16.7,35.6,0,0.51,3,���k��,4,55
2015/5/12,14:00:00,5,���쓌,3.6,12.2,64.3,0,0.47,5,���쓌,5.2,55
2015/5/12,15:00:00,4,��,2.3,12.1,65.3,0,0.44,5,���쓌,5.3,11
2015/5/12,16:00:00,8,��,2,11.9,61.4,0,0.26,8,��,3.5,59
2015/5/12,17:00:00,4,��,1.4,10.7,70.1,0,0.11,5,���쓌,3.8,27
2015/5/12,18:00:00,9,��쐼,3.5,9.9,79.3,0,0.03,9,��쐼,7.4,47
2015/5/12,19:00:00,8,��,1.2,9.6,92.4,0,0.01,10,�쐼,6,14
2015/5/12,20:00:00,4,��,1.2,8.8,96.6,0,0,5,���쓌,2.6,42
2015/5/12,21:00:00,3,���k��,2.5,8.3,99,0,0,3,���k��,3.3,0
2015/5/12,22:00:00,3,���k��,1.8,8.5,99.7,0,0,3,���k��,3.8,24
2015/5/12,23:00:00,16,�k,1.2,8.4,100,0,0,3,���k��,3.9,23
2015/5/12,0:00:00,1,�k�k��,1.6,8.8,100,0,0,1,�k�k��,2.4,54
2015/5/13,1:00:00,1,�k�k��,1.4,8.8,100,1,0,1,�k�k��,2.6,9
2015/5/13,2:00:00,1,�k�k��,1.3,8.9,100,1,0,2,�k��,2.3,48
2015/5/13,3:00:00,2,�k��,0.7,8.8,100,0.5,0,1,�k�k��,2.1,44
2015/5/13,4:00:00,14,�k��,0.5,8.8,100,1,0,1,�k�k��,3.9,30
2015/5/13,5:00:00,14,�k��,2.4,8.8,99.9,0.5,0.01,14,�k��,4.8,56
2015/5/13,6:00:00,14,�k��,3.2,8.7,98.3,0,0.04,14,�k��,5.6,37
2015/5/13,7:00:00,13,���k��,3.3,9.4,96.7,0.5,0.09,13,���k��,5.6,46
2015/5/13,8:00:00,13,���k��,2.9,10.4,92.9,0,0.16,13,���k��,5.4,44
2015/5/13,9:00:00,14,�k��,2.9,13.2,86.9,0,0.35,14,�k��,4.3,51
2015/5/13,10:00:00,13,���k��,0.8,16.3,83.9,0,0.61,12,��,5.6,2
2015/5/13,11:00:00,7,��쓌,3.1,15.7,74.9,0,1.03,7,��쓌,6.5,38
2015/5/13,12:00:00,7,��쓌,2.4,16.7,74.3,0,0.94,4,��,5.1,24
2015/5/13,13:00:00,6,�쓌,3.9,18,65.1,0,1.03,6,�쓌,5.5,54
2015/5/13,14:00:00,11,���쐼,7.3,20.9,36.4,0,0.93,11,���쐼,11.7,55
2015/5/13,15:00:00,12,��,8.5,20.3,46.7,0,0.85,12,��,15.3,40
2015/5/13,16:00:00,11,���쐼,7.7,18.5,42.2,0,0.41,12,��,12.1,53
2015/5/13,17:00:00,10,�쐼,5.3,16.6,57,0,0.14,10,�쐼,12.3,19
2015/5/13,18:00:00,9,��쐼,2.7,15.6,59.4,0,0.14,10,�쐼,7.5,10
2015/5/13,19:00:00,10,�쐼,3.7,15.7,53.9,0,0.01,11,���쐼,6.8,26
2015/5/13,20:00:00,10,�쐼,2.8,13.9,64,0,0,10,�쐼,7.7,21
2015/5/13,21:00:00,7,��쓌,2.2,13.5,66.2,0,0,7,��쓌,3.3,54
2015/5/13,22:00:00,7,��쓌,3.4,13.4,66.5,0,0,8,��,5.9,48
2015/5/13,23:00:00,8,��,2.5,12.8,69.8,0,0,6,�쓌,6,7
2015/5/13,0:00:00,8,��,3.2,11.8,74.1,0,0,8,��,7.8,9
2015/5/14,1:00:00,9,��쐼,1.7,10.6,82.8,0,0,9,��쐼,7.8,11
2015/5/14,2:00:00,8,��,2.2,10.1,94.3,0.5,0,6,�쓌,3.8,52
2015/5/14,3:00:00,2,�k��,0.3,8.3,98.9,0,0,10,�쐼,2.1,0
2015/5/14,4:00:00,12,��,0.4,7.2,99.4,0,0,1,�k�k��,2,40
2015/5/14,5:00:00,12,��,1.5,8.8,99.8,0,0.04,10,�쐼,2.5,46
2015/5/14,6:00:00,14,�k��,1.5,11.2,89.8,0,0.21,13,���k��,3.4,58
2015/5/14,7:00:00,15,�k�k��,2.6,13.3,83.4,0,0.4,15,�k�k��,4.8,54
2015/5/14,8:00:00,14,�k��,2.4,14.8,73,0,0.52,14,�k��,4.9,24
2015/5/14,9:00:00,6,�쓌,2.9,16.3,78.9,0,0.75,14,�k��,4.4,22
2015/5/14,10:00:00,5,���쓌,2.9,13.1,81.6,0,0.74,6,�쓌,6.3,25
2015/5/14,11:00:00,5,���쓌,3.2,12.6,76.1,0,0.7,5,���쓌,5.3,46
2015/5/14,12:00:00,4,��,1.9,16.2,69.7,0,0.92,4,��,4.8,16
2015/5/14,13:00:00,4,��,5.5,11.9,78.1,0,0.93,4,��,7.5,27
2015/5/14,14:00:00,4,��,5.5,12.6,72.2,0,0.84,4,��,8.4,59
2015/5/14,15:00:00,6,�쓌,4.8,10.1,75.2,0,0.75,4,��,10,13
2015/5/14,16:00:00,8,��,3.1,10.2,78.4,0,0.55,6,�쓌,7.6,12
2015/5/14,17:00:00,7,��쓌,2.3,9.3,81.9,0,0.27,9,��쐼,6.3,9
2015/5/14,18:00:00,8,��,2.1,8.8,81.8,0,0.06,7,��쓌,4.4,29
2015/5/14,19:00:00,8,��,1.3,8.5,82.9,0,0.01,7,��쓌,3,25
2015/5/14,20:00:00,5,���쓌,4.3,7.4,74.1,0,0,5,���쓌,7.6,49
2015/5/14,21:00:00,5,���쓌,3.4,6.3,78.9,0,0,4,��,7.1,1
2015/5/14,22:00:00,4,��,4.8,6.2,77.5,0,0,4,��,7.3,51
2015/5/14,23:00:00,3,���k��,3.3,6.2,75,0,0,4,��,8.2,24
2015/5/14,0:00:00,2,�k��,1.8,5.8,76.2,0,0,3,���k��,4.9,2
2015/5/15,1:00:00,3,���k��,2.2,5.6,78.1,0,0,3,���k��,3.5,59
2015/5/15,2:00:00,4,��,0.5,5.5,79.1,0,0,2,�k��,2.8,0
2015/5/15,3:00:00,1,�k�k��,0.5,5.1,90.1,0,0,3,���k��,6.6,57
2015/5/15,4:00:00,4,��,2.1,4.9,83.6,0,0,6,�쓌,4.6,42
2015/5/15,5:00:00,5,���쓌,3,5,77.3,0,0.01,5,���쓌,4.8,58
2015/5/15,6:00:00,4,��,3.1,5,75.5,0,0.04,5,���쓌,5.7,35
2015/5/15,7:00:00,4,��,2.1,5.6,75,0,0.12,4,��,4.8,10
2015/5/15,8:00:00,4,��,2.3,5.7,76.6,0,0.19,4,��,5.1,30
2015/5/15,9:00:00,5,���쓌,2.5,5.9,78.5,0,0.23,5,���쓌,3.9,52
2015/5/15,10:00:00,5,���쓌,2.4,5.6,74.1,0,0.26,5,���쓌,4.3,57
2015/5/15,11:00:00,5,���쓌,2.3,6.3,78.5,0,0.34,4,��,4.5,32
2015/5/15,12:00:00,4,��,2.3,7,80,0,0.38,4,��,4.6,39
2015/5/15,13:00:00,4,��,2.9,6.3,81.8,0,0.31,5,���쓌,5.3,46
2015/5/15,14:00:00,4,��,3.2,6.3,84.6,0,0.23,5,���쓌,5,44
2015/5/15,15:00:00,5,���쓌,1.9,6.1,82.1,0,0.13,4,��,4.6,5
2015/5/15,16:00:00,5,���쓌,1.5,6,84.3,0,0.08,5,���쓌,3.2,6
2015/5/15,17:00:00,5,���쓌,1.1,6.2,86.1,0,0.04,5,���쓌,2.6,28
2015/5/15,18:00:00,7,��쓌,1,5.9,87.5,0,0.02,5,���쓌,3.1,22
2015/5/15,19:00:00,10,�쐼,0.8,5.8,90.7,0,0.01,8,��,1.6,31
2015/5/15,20:00:00,15,�k�k��,0.5,5.7,90.6,0,0,4,��,1.7,3
2015/5/15,21:00:00,13,���k��,1.8,5.5,95.3,0.5,0,12,��,3.6,58
2015/5/15,22:00:00,15,�k�k��,1.3,5.2,98,4,0,14,�k��,3.1,32
2015/5/15,23:00:00,14,�k��,1.9,5.2,98.4,2,0,14,�k��,4.3,41
2015/5/15,0:00:00,13,���k��,1.6,5.1,98.7,10,0,14,�k��,3,0
2015/5/16,1:00:00,14,�k��,3.5,5.3,98.8,5.5,0,13,���k��,5.5,45
2015/5/16,2:00:00,14,�k��,2.2,5.2,98.2,7,0,6,�쓌,6.6,11
2015/5/16,3:00:00,14,�k��,1.5,5.3,98,0.5,0,13,���k��,4.8,28
2015/5/16,4:00:00,13,���k��,2.7,5.3,98.4,0.5,0,12,��,4.1,59
2015/5/16,5:00:00,13,���k��,2.7,5.5,96.9,0,0.01,9,��쐼,5.2,33
2015/5/16,6:00:00,14,�k��,3.5,5.6,97.4,0,0.04,13,���k��,6.1,52
2015/5/16,7:00:00,13,���k��,3.4,6.5,93.8,0,0.13,14,�k��,5.8,51
2015/5/16,8:00:00,15,�k�k��,1.8,7.9,90.2,0,0.29,11,���쐼,5.8,43
2015/5/16,9:00:00,9,��쐼,0.7,10.2,81.7,0,0.5,15,�k�k��,4.7,9
2015/5/16,10:00:00,5,���쓌,2.2,10.9,83.5,0,0.6,5,���쓌,4,44
2015/5/16,11:00:00,7,��쓌,3.1,10.4,81,0,0.91,6,�쓌,4.9,42
2015/5/16,12:00:00,7,��쓌,3.8,11,78.5,0,1.06,8,��,6.5,40
2015/5/16,13:00:00,7,��쓌,2.7,11.7,78.5,0,1.02,8,��,6.1,12
2015/5/16,14:00:00,7,��쓌,3.3,12.5,76.5,0,0.91,7,��쓌,5.6,59
2015/5/16,15:00:00,7,��쓌,2.5,13.8,76.6,0,0.76,7,��쓌,4.5,0
2015/5/16,16:00:00,6,�쓌,2.5,12.1,78.4,0,0.56,7,��쓌,4.3,53
2015/5/16,17:00:00,8,��,3.4,12,80.5,0,0.3,8,��,5.7,52
2015/5/16,18:00:00,9,��쐼,1.9,12.4,83,0,0.19,8,��,4.6,9
2015/5/16,19:00:00,15,�k�k��,0.4,9.2,94.6,0,0.02,2,�k��,1.6,43
2015/5/16,20:00:00,2,�k��,0.8,6.9,96.2,0,0,3,���k��,4.6,27
2015/5/16,21:00:00,5,���쓌,0.4,5.7,98.6,0,0,2,�k��,2.6,18
2015/5/16,22:00:00,11,���쐼,2.2,4.9,99.5,0,0,12,��,4.9,35
2015/5/16,23:00:00,12,��,1.1,4.5,99.5,0,0,12,��,3.1,43
2015/5/16,0:00:00,10,�쐼,0.9,3,99.6,0,0,12,��,2.7,35
2015/5/17,1:00:00,12,��,1.8,2.9,100,0,0,12,��,3.5,50
2015/5/17,2:00:00,16,�k,0.7,1.4,100,0,0,12,��,2.9,45
2015/5/17,3:00:00,9,��쐼,1.9,2.1,100,0,0,6,�쓌,3.5,50
2015/5/17,4:00:00,10,�쐼,3.5,9.2,60,0,0,10,�쐼,8.1,24
2015/5/17,5:00:00,10,�쐼,4,10.9,63.6,0,0.05,8,��,9.3,34
2015/5/17,6:00:00,10,�쐼,7.3,12.1,59,0,0.21,11,���쐼,11.2,59
2015/5/17,7:00:00,12,��,7.1,13.4,57.2,0,0.44,11,���쐼,12.2,42
2015/5/17,8:00:00,11,���쐼,8,13.3,56.8,0,0.63,12,��,13.8,58
2015/5/17,9:00:00,12,��,10.6,14.1,45.8,0,0.82,12,��,17.1,59
2015/5/17,10:00:00,11,���쐼,7.4,14.9,50.4,0,0.97,11,���쐼,13.8,16
2015/5/17,11:00:00,11,���쐼,9.3,14.3,48.2,0,1.04,12,��,15.2,8
2015/5/17,12:00:00,12,��,6.4,12.3,59.3,0,0.41,11,���쐼,14.1,1
2015/5/17,13:00:00,12,��,4.4,12.9,75.2,0,0.76,12,��,14.3,16
2015/5/17,14:00:00,14,�k��,3.7,15.9,47.6,0,0.97,12,��,11.8,25
2015/5/17,15:00:00,12,��,5.8,16.1,38.2,0,0.8,12,��,12.6,20
2015/5/17,16:00:00,13,���k��,4.9,16,34.8,0,0.6,12,��,11.1,28
2015/5/17,17:00:00,14,�k��,4.8,15.2,38.9,0,0.4,13,���k��,10.6,6
2015/5/17,18:00:00,14,�k��,4.3,13.8,39.9,0,0.19,14,�k��,8.9,16
2015/5/17,19:00:00,13,���k��,1.4,10.5,57,0,0.03,13,���k��,7.5,5
2015/5/17,20:00:00,14,�k��,2.3,9.9,58.2,0,0,3,���k��,3.1,58
2015/5/17,21:00:00,12,��,1.7,4.6,86.4,0,0,16,�k,3.5,23
2015/5/17,22:00:00,11,���쐼,2.3,3.5,91.2,0,0,10,�쐼,3.1,57
2015/5/17,23:00:00,12,��,2.3,2.8,88.9,0,0,12,��,4.1,33
2015/5/17,0:00:00,1,�k�k��,1.4,3.6,85.4,0,0,12,��,5.1,30
2015/5/18,1:00:00,12,��,2.9,2.3,91.5,0,0,12,��,4.2,50
2015/5/18,2:00:00,12,��,2,1.2,95.9,0,0,12,��,3.1,0